TimeCDT,TemperatureF,Dew PointF,Humidity,Sea Level PressureIn,VisibilityMPH,Wind Direction,Wind SpeedMPH,Gust SpeedMPH,PrecipitationIn,Events,Conditions,WindDirDegrees,DateUTC
12:13 AM,48.2,35.6,62,29.64,10.0,SSE,17.3,-,N/A,,Scattered Clouds,150,2013-04-06 05:13:00
12:33 AM,48.2,35.6,62,29.63,10.0,SSE,13.8,-,N/A,,Scattered Clouds,150,2013-04-06 05:33:00
12:53 AM,48.2,35.6,62,29.61,10.0,SSE,16.1,21.9,N/A,,Mostly Cloudy,160,2013-04-06 05:53:00
1:13 AM,48.2,35.6,62,29.60,10.0,SSE,18.4,23.0,N/A,,Mostly Cloudy,150,2013-04-06 06:13:00
1:33 AM,48.2,37.4,66,29.60,10.0,SSE,16.1,21.9,N/A,,Scattered Clouds,150,2013-04-06 06:33:00
1:53 AM,48.2,37.4,66,29.59,10.0,SSE,15.0,-,N/A,,Scattered Clouds,160,2013-04-06 06:53:00
2:13 AM,48.2,37.4,66,29.57,10.0,SSE,15.0,20.7,N/A,,Scattered Clouds,150,2013-04-06 07:13:00
2:33 AM,48.2,37.4,66,29.56,10.0,SSE,13.8,19.6,N/A,,Mostly Cloudy,160,2013-04-06 07:33:00
2:53 AM,48.2,37.4,66,29.56,10.0,South,10.4,-,N/A,,Mostly Cloudy,180,2013-04-06 07:53:00
3:13 AM,50.0,37.4,62,29.52,10.0,South,19.6,25.3,N/A,,Scattered Clouds,170,2013-04-06 08:13:00
3:33 AM,50.0,37.4,62,29.52,10.0,South,21.9,28.8,N/A,,Clear,180,2013-04-06 08:33:00
3:53 AM,50.0,39.2,66,29.53,10.0,South,20.7,25.3,N/A,,Mostly Cloudy,190,2013-04-06 08:53:00
4:13 AM,50.0,37.4,62,29.52,10.0,South,16.1,-,N/A,,Scattered Clouds,190,2013-04-06 09:13:00
4:33 AM,50.0,39.2,66,29.52,10.0,South,18.4,-,N/A,,Mostly Cloudy,180,2013-04-06 09:33:00
4:53 AM,50.0,39.2,66,29.51,10.0,South,16.1,20.7,N/A,,Overcast,180,2013-04-06 09:53:00
5:13 AM,48.2,39.2,71,29.51,10.0,South,15.0,-,N/A,,Overcast,180,2013-04-06 10:13:00
5:33 AM,48.2,39.2,71,29.50,10.0,South,16.1,-,N/A,,Overcast,180,2013-04-06 10:33:00
5:53 AM,48.2,39.2,71,29.49,10.0,South,15.0,-,N/A,,Mostly Cloudy,180,2013-04-06 10:53:00
6:13 AM,48.2,39.2,71,29.49,10.0,South,12.7,-,N/A,,Clear,170,2013-04-06 11:13:00
6:33 AM,48.2,39.2,71,29.49,10.0,SSE,9.2,-,N/A,,Clear,160,2013-04-06 11:33:00
6:53 AM,46.4,37.4,71,29.49,10.0,South,8.1,-,N/A,,Clear,170,2013-04-06 11:53:00
7:13 AM,46.4,37.4,71,29.49,10.0,South,9.2,-,N/A,,Clear,170,2013-04-06 12:13:00
7:33 AM,46.4,39.2,76,29.48,10.0,South,10.4,-,N/A,,Clear,170,2013-04-06 12:33:00
7:53 AM,46.4,39.2,76,29.48,10.0,SSW,9.2,-,N/A,,Clear,210,2013-04-06 12:53:00
8:13 AM,44.6,35.6,71,29.48,10.0,West,8.1,-,N/A,,Clear,270,2013-04-06 13:13:00
8:33 AM,44.6,35.6,71,29.49,10.0,West,11.5,-,N/A,,Clear,270,2013-04-06 13:33:00
8:53 AM,42.8,35.6,76,29.50,10.0,West,9.2,-,N/A,,Scattered Clouds,260,2013-04-06 13:53:00
9:13 AM,42.8,35.6,76,29.49,10.0,WNW,12.7,-,N/A,,Scattered Clouds,290,2013-04-06 14:13:00
9:33 AM,42.8,37.4,81,29.50,10.0,WNW,13.8,17.3,N/A,,Scattered Clouds,290,2013-04-06 14:33:00
9:53 AM,44.6,37.4,76,29.50,10.0,WNW,11.5,-,N/A,,Scattered Clouds,300,2013-04-06 14:53:00
10:13 AM,46.4,37.4,71,29.52,10.0,NW,18.4,21.9,N/A,,Scattered Clouds,310,2013-04-06 15:13:00
10:33 AM,44.6,39.2,81,29.52,10.0,NW,17.3,-,N/A,Rain,Light Rain,320,2013-04-06 15:33:00
10:53 AM,44.6,39.2,81,29.52,10.0,NNW,20.7,27.6,N/A,Rain,Light Rain,340,2013-04-06 15:53:00
11:13 AM,42.8,37.4,81,29.55,10.0,NW,17.3,-,N/A,Rain,Light Rain,320,2013-04-06 16:13:00
11:33 AM,41.0,37.4,87,29.56,7.0,NW,16.1,20.7,N/A,Rain,Light Rain,320,2013-04-06 16:33:00
11:53 AM,41.0,37.4,87,29.56,10.0,NW,12.7,-,0.01,,Scattered Clouds,320,2013-04-06 16:53:00
12:13 PM,42.8,37.4,81,29.57,10.0,NNW,20.7,27.6,N/A,,Scattered Clouds,330,2013-04-06 17:13:00
12:33 PM,42.8,37.4,81,29.57,10.0,NNW,18.4,27.6,N/A,,Mostly Cloudy,330,2013-04-06 17:33:00
12:53 PM,44.6,37.4,76,29.58,10.0,NNW,17.3,26.5,N/A,,Mostly Cloudy,330,2013-04-06 17:53:00
1:13 PM,42.8,35.6,76,29.58,10.0,NNW,20.7,26.5,N/A,,Overcast,330,2013-04-06 18:13:00
1:33 PM,44.6,37.4,76,29.58,10.0,NNW,19.6,-,N/A,,Mostly Cloudy,340,2013-04-06 18:33:00
1:53 PM,46.4,37.4,71,29.58,10.0,NNW,20.7,24.2,N/A,,Scattered Clouds,340,2013-04-06 18:53:00
2:13 PM,50.0,37.4,62,29.58,10.0,NNW,18.4,25.3,N/A,,Clear,340,2013-04-06 19:13:00
2:33 PM,51.8,37.4,58,29.59,10.0,NNW,16.1,26.5,N/A,,Clear,340,2013-04-06 19:33:00
2:53 PM,53.6,37.4,54,29.59,10.0,North,16.1,28.8,N/A,,Clear,350,2013-04-06 19:53:00
3:13 PM,55.4,37.4,51,29.60,10.0,NNW,18.4,26.5,N/A,,Clear,330,2013-04-06 20:13:00
3:33 PM,55.4,39.2,54,29.61,10.0,NNW,19.6,25.3,N/A,,Clear,330,2013-04-06 20:33:00
3:53 PM,53.6,39.2,58,29.61,10.0,NNW,17.3,27.6,N/A,,Clear,330,2013-04-06 20:53:00
4:13 PM,55.4,39.2,54,29.62,10.0,NNW,17.3,27.6,N/A,,Clear,330,2013-04-06 21:13:00
4:33 PM,55.4,39.2,54,29.62,10.0,NNW,18.4,24.2,N/A,,Clear,340,2013-04-06 21:33:00
4:53 PM,55.4,39.2,54,29.64,10.0,NNW,13.8,25.3,N/A,,Clear,340,2013-04-06 21:53:00
5:13 PM,55.4,37.4,51,29.65,10.0,NNW,20.7,25.3,N/A,,Clear,330,2013-04-06 22:13:00
5:33 PM,55.4,37.4,51,29.66,10.0,NNW,17.3,23.0,N/A,,Clear,340,2013-04-06 22:33:00
5:53 PM,55.4,37.4,51,29.67,10.0,North,17.3,26.5,N/A,,Clear,350,2013-04-06 22:53:00
6:13 PM,53.6,37.4,54,29.68,10.0,NNW,17.3,23.0,N/A,,Clear,340,2013-04-06 23:13:00
6:33 PM,53.6,37.4,54,29.69,10.0,North,13.8,24.2,N/A,,Clear,350,2013-04-06 23:33:00
6:53 PM,51.8,37.4,58,29.69,10.0,NNE,13.8,23.0,N/A,,Clear,20,2013-04-06 23:53:00
7:13 PM,51.8,37.4,58,29.70,10.0,NNE,11.5,-,N/A,,Clear,20,2013-04-07 00:13:00
7:33 PM,48.2,37.4,66,29.70,10.0,NNE,9.2,-,N/A,,Clear,20,2013-04-07 00:33:00
7:53 PM,46.4,37.4,71,29.71,10.0,NNE,6.9,-,N/A,,Clear,30,2013-04-07 00:53:00
8:13 PM,44.6,37.4,76,29.73,10.0,NE,6.9,-,N/A,,Clear,40,2013-04-07 01:13:00
8:33 PM,42.8,35.6,76,29.75,10.0,NE,5.8,-,N/A,,Clear,40,2013-04-07 01:33:00
8:53 PM,39.2,35.6,87,29.75,10.0,NE,8.1,-,N/A,,Clear,40,2013-04-07 01:53:00
9:13 PM,37.4,35.6,93,29.76,10.0,NE,9.2,-,N/A,,Clear,40,2013-04-07 02:13:00
9:33 PM,37.4,33.8,87,29.77,10.0,NE,8.1,-,N/A,,Clear,40,2013-04-07 02:33:00
9:53 PM,35.6,33.8,93,29.78,10.0,NNE,6.9,-,N/A,,Clear,30,2013-04-07 02:53:00
10:13 PM,35.6,32.0,87,29.79,7.0,NE,5.8,-,N/A,,Clear,40,2013-04-07 03:13:00
10:33 PM,33.8,32.0,93,29.79,7.0,NE,8.1,-,N/A,,Clear,40,2013-04-07 03:33:00
10:53 PM,33.8,32.0,93,29.79,7.0,NNE,6.9,-,N/A,,Clear,30,2013-04-07 03:53:00
11:13 PM,33.8,30.2,87,29.80,7.0,Calm,Calm,-,N/A,,Scattered Clouds,0,2013-04-07 04:13:00
11:33 PM,33.8,32.0,93,29.79,5.0,NNE,6.9,-,N/A,,Mostly Cloudy,30,2013-04-07 04:33:00
11:53 PM,33.8,32.0,93,29.81,5.0,NNW,6.9,-,N/A,,Overcast,340,2013-04-07 04:53:00